« Back
NWS Peachtree City, Ga » Text Product » GA Regional Weather Roundup


Printer-friendly Version
Current Version              Previous Versions:   1  2  3  4  5  6  7  8  9  

Regional Weather Roundup

572
ASUS42 KFFC 290510
RWRGA
WEATHER ROUNDUP FOR GEORGIA
NATIONAL WEATHER SERVICE PEACHTREE CITY GA
100 AM EDT SAT AUG 29 2015

NOTE: "FAIR" INDICATES FEW OR NO CLOUDS BELOW 12,000 FEET WITH NO
SIGNIFICANT WEATHER AND/OR OBSTRUCTIONS TO VISIBILITY.

* = USE WITH CAUTION. THE STATIONS MARKED WITH AN ASTERISK MAY NOT
REPORT WEATHER SUCH AS PRECIPITATION, FOG, OR THUNDER AND ARE NOT
QUALITY CONTROLLED BY NWS.

THE REMARK "TC" DENOTES TEMPERATURE READING IN DEGREES CELSIUS.

GAZ001>058-290600-
NORTH GEORGIA

CITY           SKY/WX    TMP DP  RH WIND       PRES   REMARKS
ATLANTA        CLOUDY    75  67  76 SE6       30.17S
ATHENS         PTCLDY    70  67  90 E3        30.18S
CHAMBLEE       CLOUDY    73  68  84 E3        30.18R
PEACHTREE CITY MOCLDY    70  69  97 S3        30.17R FOG
ROME           MOCLDY    70  67  90 CALM      30.15S
WEST ATLANTA   CLOUDY    71  67  87 CALM      30.17R
GAINESVILLE    MOCLDY    71  66  84 NE3       30.22S
CARTERSVILLE   MOCLDY    68  67  96 CALM      30.17S


CITY           SKY/WX    TMP DP  RH WIND       PRES   REMARKS
DALTON*        MOCLDY    68  68 100 CALM      30.16F
MARIETTA       MOCLDY    73  68  83 NE3       30.17S
BLAIRSVILLE*     N/A     64  56  75 CALM      30.23F
$$

GAZ059>098-102>109-290600-
CENTRAL GEORGIA

CITY           SKY/WX    TMP DP  RH WIND       PRES   REMARKS
AUGUSTA-BUSH   PTCLDY    71  68  90 CALM      30.15F
AUGUSTA-DANIEL PTCLDY    75  65  70 E5        30.18S
COLUMBUS       CLOUDY    73  70  90 NE3       30.13R
MACON          PTCLDY    73  70  90 E3        30.14S
ROBINS AFB     PTCLDY    74  71  91 E3        30.14S


CITY           SKY/WX    TMP DP  RH WIND       PRES   REMARKS
LAGRANGE*      CLOUDY    76  75  97 SE5       30.14S
SYLVANIA*      PTCLDY    74  73  97 NE3       30.16S
MILLEDGEVILLE* PTCLDY    75  70  83 CALM      30.16R
$$

GAZ099>101-110>166-290600-
SOUTH GEORGIA

CITY           SKY/WX    TMP DP  RH WIND       PRES   REMARKS
SAVANNAH       NOT AVBL
VALDOSTA       CLOUDY    74  71  91 SE3       30.10S
ALMA           CLOUDY    75  73  93 VRB3      30.11S
ST SIMONS      CLOUDY    81  73  76 E10       30.09S
FT STEWART     MOCLDY    74  72  92 N3        30.10S
ALBANY         CLOUDY    75  71  87 N3        30.13R
HUNTER AFB     PTCLDY    78  76  95 N2        30.10S
MOODY AFB      CLOUDY    72  70  93 SE3       30.09S
BRUNSWICK      CLOUDY    73  73 100 CALM      30.10S


CITY           SKY/WX    TMP DP  RH WIND       PRES   REMARKS
BAINBRIDGE*    CLOUDY    72  68  88 E6        30.10S
MOULTRIE*      CLOUDY    73  72  94 CALM      30.12R
VIDALIA*       PTCLDY    73  70  88 NE7       30.14F
WAYCROSS*      CLOUDY    78  78  99 CALM      30.11R
DOUGLAS*       CLOUDY    77  73  88 E3        30.13S
$$



USA.gov is the U.S. government's official web portal to all federal, state and local government web resources and services.